星链-3117 (STARLINK-3117 )

导读

STARLINK-3117是美国太空探索技术公司(SpaceX)星链(Starlink)计划中的卫星,于2021年11月13日发射升空。作为星链互联网星座的组成部分,它主要为全球范围提供低延迟、高速率的卫星宽带互联网服务,属于低轨通信卫星,支撑星链网络覆盖能力的扩展,服务个人、企业及特殊场景网络需求。

基本信息
目录编号:
49435
目录名称:
STARLINK-3117
国际标识:
2021-104AD
轨道中心:
EARTH
卫星名称:
星链-3117
卫星全名:
星链-3117 (STARLINK-3117 )
卫星状态:
在轨 (已飞行1763 天)
发射日期:
2021-11-13 UTC
国别 :
美国 (US)
星等 :
--
该卫星已列入 空间交会检测服务 Space Conjunction Data Service (SCDS) ,当前飞行风险评估等级: 无高风险
轨道信息
数据来源 国际轨道数据
星历时间: 2026-09-11T14:00:02+0800
11小时前
查看轨道信息
半长轴: 6872.431km
偏心率: 0.000072
轨道倾角: 53.161°
近地点辐角 76.689°
升交点赤经 94.799°
平近点角 330.511°
近地点: 493.799km
远地点: 494.789km
周期: 94.499分钟
每日圈数: 15.238325
详细信息
固有亮度:
5
最大亮度:
2.5
卫星平台:
Starlink v1.5
覆盖范围:
全球
运营商:
太空探索技术公司
运营商所在国:
美国
制造商(研发单位):
太空探索技术公司
制造商所在国:
美国
使用方式:
暂无
卫星简介
星链(Starlink)计划是由太空探索技术公司(SpaceX)提出的一个巨型低轨卫星互联网星座项目,计划在2019年至2024年间在太空搭建由约1.2万颗卫星组成的“星链”网络,其中1584颗将部署在地球上空550千米处的近地轨道,并从2020年开始工作。该卫星仍在工作。
2D轨道图
3D轨道图
轨道高度分析图
轨道倾角分析图
轨道综合分析图
查看轨道综合分析图
交会数据列表
事件ID 空间交会对象 最接近时刻(TCA) 交会距离 交会风险概率(CRP) 交会风险指数(CRI) 操作
CDM_260912-094004-943506-729521
2026-09-12T
09:40:38+0000
1.660 km
极远距离
4.470449E-6 低风险 0.48
与全量物体交会距离演化趋势
与全量物体交会风险概率演化趋势